Time,TemperatureF,DewpointF,PressureIn,WindDirection,WindDirectionDegrees,WindSpeedMPH,WindSpeedGustMPH,Humidity,HourlyPrecipIn,Conditions,Clouds,dailyrainin,SoftwareType,DateUTC
2013-11-02 00:00:00,46.0,-99.9,-100.00,North,-999,-999.0,-999.0,-999,0.00,,,0.01,,2013-11-02 07:00:00,
2013-11-02 00:42:00,46.0,-99.9,-100.00,North,-999,-999.0,-999.0,-999,0.00,,,0.01,,2013-11-02 07:42:00,
2013-11-02 00:52:00,46.0,-99.9,-100.00,North,-999,-999.0,-999.0,-999,0.00,,,0.01,,2013-11-02 07:52:00,
2013-11-02 01:00:00,46.0,-99.9,-100.00,North,-999,-999.0,-999.0,-999,0.07,,,0.08,,2013-11-02 08:00:00,
2013-11-02 01:22:00,46.0,-99.9,-100.00,North,-999,-999.0,-999.0,-999,0.07,,,0.08,,2013-11-02 08:22:00,
2013-11-02 01:32:00,46.0,-99.9,-100.00,North,-999,-999.0,-999.0,-999,0.07,,,0.08,,2013-11-02 08:32:00,
2013-11-02 01:42:00,46.0,-99.9,-100.00,North,-999,-999.0,-999.0,-999,0.07,,,0.08,,2013-11-02 08:42:00,
2013-11-02 01:52:00,46.0,-99.9,-100.00,North,-999,-999.0,-999.0,-999,0.07,,,0.08,,2013-11-02 08:52:00,
2013-11-02 02:00:00,47.0,-99.9,-100.00,North,-999,-999.0,-999.0,-999,0.15,,,0.23,,2013-11-02 09:00:00,
2013-11-02 02:22:00,47.0,-99.9,-100.00,North,-999,-999.0,-999.0,-999,0.15,,,0.23,,2013-11-02 09:22:00,
2013-11-02 02:34:00,47.0,-99.9,-100.00,North,-999,-999.0,-999.0,-999,0.15,,,0.23,,2013-11-02 09:34:00,
2013-11-02 02:43:00,47.0,-99.9,-100.00,North,-999,-999.0,-999.0,-999,0.15,,,0.23,,2013-11-02 09:43:00,
2013-11-02 02:54:00,47.0,-99.9,-100.00,North,-999,-999.0,-999.0,-999,0.15,,,0.23,,2013-11-02 09:54:00,
2013-11-02 03:00:00,47.0,-99.9,-100.00,North,-999,-999.0,-999.0,-999,0.07,,,0.30,,2013-11-02 10:00:00,
2013-11-02 03:43:00,47.0,-99.9,-100.00,North,-999,-999.0,-999.0,-999,0.07,,,0.30,,2013-11-02 10:43:00,
2013-11-02 03:53:00,47.0,-99.9,-100.00,North,-999,-999.0,-999.0,-999,0.07,,,0.30,,2013-11-02 10:53:00,
2013-11-02 04:00:00,47.0,-99.9,-100.00,North,-999,-999.0,-999.0,-999,0.10,,,0.40,,2013-11-02 11:00:00,
2013-11-02 04:42:00,47.0,-99.9,-100.00,North,-999,-999.0,-999.0,-999,0.10,,,0.40,,2013-11-02 11:42:00,
2013-11-02 04:52:00,47.0,-99.9,-100.00,North,-999,-999.0,-999.0,-999,0.10,,,0.40,,2013-11-02 11:52:00,
2013-11-02 05:00:00,49.0,-99.9,-100.00,North,-999,-999.0,-999.0,-999,0.16,,,0.56,,2013-11-02 12:00:00,
2013-11-02 05:42:00,49.0,-99.9,-100.00,North,-999,-999.0,-999.0,-999,0.16,,,0.56,,2013-11-02 12:42:00,
2013-11-02 05:52:00,49.0,-99.9,-100.00,North,-999,-999.0,-999.0,-999,0.16,,,0.56,,2013-11-02 12:52:00,
2013-11-02 06:00:00,49.0,-99.9,-100.00,North,-999,-999.0,-999.0,-999,0.05,,,0.61,,2013-11-02 13:00:00,
2013-11-02 06:42:00,49.0,-99.9,-100.00,North,-999,-999.0,-999.0,-999,0.05,,,0.61,,2013-11-02 13:42:00,
2013-11-02 06:52:00,49.0,-99.9,-100.00,North,-999,-999.0,-999.0,-999,0.05,,,0.61,,2013-11-02 13:52:00,
2013-11-02 07:00:00,48.0,-99.9,-100.00,North,-999,-999.0,-999.0,-999,0.01,,,0.62,,2013-11-02 14:00:00,
2013-11-02 07:42:00,48.0,-99.9,-100.00,North,-999,-999.0,-999.0,-999,0.01,,,0.62,,2013-11-02 14:42:00,
2013-11-02 07:52:00,48.0,-99.9,-100.00,North,-999,-999.0,-999.0,-999,0.01,,,0.62,,2013-11-02 14:52:00,
2013-11-02 08:00:00,48.0,-99.9,-100.00,North,-999,-999.0,-999.0,-999,0.00,,,0.62,,2013-11-02 15:00:00,
2013-11-02 08:43:00,48.0,-99.9,-100.00,North,-999,-999.0,-999.0,-999,0.00,,,0.62,,2013-11-02 15:43:00,
2013-11-02 08:53:00,48.0,-99.9,-100.00,North,-999,-999.0,-999.0,-999,0.00,,,0.62,,2013-11-02 15:53:00,
2013-11-02 09:00:00,47.0,-99.9,-100.00,North,-999,-999.0,-999.0,-999,0.09,,,0.71,,2013-11-02 16:00:00,
2013-11-02 09:43:00,47.0,-99.9,-100.00,North,-999,-999.0,-999.0,-999,0.09,,,0.71,,2013-11-02 16:43:00,
2013-11-02 09:54:00,47.0,-99.9,-100.00,North,-999,-999.0,-999.0,-999,0.09,,,0.71,,2013-11-02 16:54:00,
2013-11-02 10:00:00,45.0,-99.9,-100.00,North,-999,-999.0,-999.0,-999,0.04,,,0.74,,2013-11-02 17:00:00,
2013-11-02 10:43:00,45.0,-99.9,-100.00,North,-999,-999.0,-999.0,-999,0.04,,,0.74,,2013-11-02 17:43:00,
2013-11-02 10:53:00,45.0,-99.9,-100.00,North,-999,-999.0,-999.0,-999,0.04,,,0.74,,2013-11-02 17:53:00,
2013-11-02 11:00:00,44.0,-99.9,-100.00,North,-999,-999.0,-999.0,-999,0.01,,,0.75,,2013-11-02 18:00:00,
2013-11-02 11:42:00,44.0,-99.9,-100.00,North,-999,-999.0,-999.0,-999,0.01,,,0.75,,2013-11-02 18:42:00,
2013-11-02 11:53:00,44.0,-99.9,-100.00,North,-999,-999.0,-999.0,-999,0.01,,,0.75,,2013-11-02 18:53:00,
2013-11-02 12:00:00,44.0,-99.9,-100.00,North,-999,-999.0,-999.0,-999,0.02,,,0.77,,2013-11-02 19:00:00,
2013-11-02 12:42:00,44.0,-99.9,-100.00,North,-999,-999.0,-999.0,-999,0.02,,,0.77,,2013-11-02 19:42:00,
2013-11-02 12:53:00,44.0,-99.9,-100.00,North,-999,-999.0,-999.0,-999,0.02,,,0.77,,2013-11-02 19:53:00,
2013-11-02 13:00:00,43.0,-99.9,-100.00,North,-999,-999.0,-999.0,-999,0.05,,,0.82,,2013-11-02 20:00:00,
2013-11-02 13:22:00,43.0,-99.9,-100.00,North,-999,-999.0,-999.0,-999,0.05,,,0.82,,2013-11-02 20:22:00,
2013-11-02 13:32:00,43.0,-99.9,-100.00,North,-999,-999.0,-999.0,-999,0.05,,,0.82,,2013-11-02 20:32:00,
2013-11-02 13:43:00,43.0,-99.9,-100.00,North,-999,-999.0,-999.0,-999,0.05,,,0.82,,2013-11-02 20:43:00,
2013-11-02 13:53:00,43.0,-99.9,-100.00,North,-999,-999.0,-999.0,-999,0.05,,,0.82,,2013-11-02 20:53:00,
2013-11-02 14:00:00,43.0,-99.9,-100.00,North,-999,-999.0,-999.0,-999,0.03,,,0.85,,2013-11-02 21:00:00,
2013-11-02 14:22:00,43.0,-99.9,-100.00,North,-999,-999.0,-999.0,-999,0.03,,,0.85,,2013-11-02 21:22:00,
2013-11-02 14:33:00,43.0,-99.9,-100.00,North,-999,-999.0,-999.0,-999,0.03,,,0.85,,2013-11-02 21:33:00,
2013-11-02 14:44:00,43.0,-99.9,-100.00,North,-999,-999.0,-999.0,-999,0.03,,,0.85,,2013-11-02 21:44:00,
2013-11-02 14:54:00,43.0,-99.9,-100.00,North,-999,-999.0,-999.0,-999,0.03,,,0.85,,2013-11-02 21:54:00,
2013-11-02 15:00:00,43.0,-99.9,-100.00,North,-999,-999.0,-999.0,-999,0.02,,,0.87,,2013-11-02 22:00:00,
2013-11-02 15:24:00,43.0,-99.9,-100.00,North,-999,-999.0,-999.0,-999,0.02,,,0.87,,2013-11-02 22:24:00,
2013-11-02 15:34:00,43.0,-99.9,-100.00,North,-999,-999.0,-999.0,-999,0.02,,,0.87,,2013-11-02 22:34:00,
2013-11-02 15:44:00,43.0,-99.9,-100.00,North,-999,-999.0,-999.0,-999,0.02,,,0.87,,2013-11-02 22:44:00,
2013-11-02 15:54:00,43.0,-99.9,-100.00,North,-999,-999.0,-999.0,-999,0.02,,,0.87,,2013-11-02 22:54:00,
2013-11-02 16:00:00,44.0,-99.9,-100.00,North,-999,-999.0,-999.0,-999,0.01,,,0.88,,2013-11-02 23:00:00,
2013-11-02 16:42:00,44.0,-99.9,-100.00,North,-999,-999.0,-999.0,-999,0.01,,,0.88,,2013-11-02 23:42:00,
2013-11-02 16:52:00,44.0,-99.9,-100.00,North,-999,-999.0,-999.0,-999,0.01,,,0.88,,2013-11-02 23:52:00,
2013-11-02 17:00:00,44.0,-99.9,-100.00,North,-999,-999.0,-999.0,-999,0.00,,,0.88,,2013-11-03 00:00:00,
2013-11-02 17:22:00,44.0,-99.9,-100.00,North,-999,-999.0,-999.0,-999,0.00,,,0.88,,2013-11-03 00:22:00,
2013-11-02 17:33:00,44.0,-99.9,-100.00,North,-999,-999.0,-999.0,-999,0.00,,,0.88,,2013-11-03 00:33:00,
2013-11-02 17:42:00,44.0,-99.9,-100.00,North,-999,-999.0,-999.0,-999,0.00,,,0.88,,2013-11-03 00:42:00,
2013-11-02 17:52:00,44.0,-99.9,-100.00,North,-999,-999.0,-999.0,-999,0.00,,,0.88,,2013-11-03 00:52:00,
2013-11-02 19:00:00,43.0,-99.9,-100.00,North,-999,-999.0,-999.0,-999,0.00,,,0.88,,2013-11-03 02:00:00,
2013-11-02 19:43:00,43.0,-99.9,-100.00,North,-999,-999.0,-999.0,-999,0.00,,,0.88,,2013-11-03 02:43:00,
2013-11-02 19:52:00,43.0,-99.9,-100.00,North,-999,-999.0,-999.0,-999,0.00,,,0.88,,2013-11-03 02:52:00,
2013-11-02 20:45:00,42.0,-99.9,-100.00,North,-999,-999.0,-999.0,-999,0.00,,,0.88,,2013-11-03 03:45:00,
2013-11-02 20:54:00,42.0,-99.9,-100.00,North,-999,-999.0,-999.0,-999,0.00,,,0.88,,2013-11-03 03:54:00,
2013-11-02 21:00:00,43.0,-99.9,-100.00,North,-999,-999.0,-999.0,-999,0.00,,,0.88,,2013-11-03 04:00:00,
2013-11-02 21:44:00,43.0,-99.9,-100.00,North,-999,-999.0,-999.0,-999,0.00,,,0.88,,2013-11-03 04:44:00,
2013-11-02 21:53:00,43.0,-99.9,-100.00,North,-999,-999.0,-999.0,-999,0.00,,,0.88,,2013-11-03 04:53:00,
2013-11-02 22:00:00,43.0,-99.9,-100.00,North,-999,-999.0,-999.0,-999,0.00,,,0.88,,2013-11-03 05:00:00,
2013-11-02 22:44:00,43.0,-99.9,-100.00,North,-999,-999.0,-999.0,-999,0.00,,,0.88,,2013-11-03 05:44:00,
2013-11-02 22:53:00,43.0,-99.9,-100.00,North,-999,-999.0,-999.0,-999,0.00,,,0.88,,2013-11-03 05:53:00,
2013-11-02 23:00:00,42.0,-99.9,-100.00,North,-999,-999.0,-999.0,-999,0.00,,,0.88,,2013-11-03 06:00:00,
2013-11-02 23:43:00,42.0,-99.9,-100.00,North,-999,-999.0,-999.0,-999,0.00,,,0.88,,2013-11-03 06:43:00,
2013-11-02 23:53:00,42.0,-99.9,-100.00,North,-999,-999.0,-999.0,-999,0.00,,,0.88,,2013-11-03 06:53:00,